Back to catalog

STARLINK-11445

AliveCommunicationsVLEO
NORAD 62414·PAYLOAD·🇺🇸 United States

Launched Dec 23, 2024 from Cape Canaveral Space Force Station

Loading…

Next Passes (next 24 hours)

TLE

FreshSource: CelesTrak SupGP

Epoch: Sep 14, 2026, 15:08 UTC

1 62414C 24249F   26257.63104167  .00054107  00000+0  42031-3 0  2574
2 62414  43.0003 108.6403 0001681 250.9862 257.2165 15.70808355    10

Track STARLINK-11445 in real time with AllMySat

Download on the App Store